START_TIME,STEP,MOV.,A46,t_acc.,A13,t_acc.,M47,t_acc.,A17,t_acc.,A28,t_acc.,M38,t_acc.
1979-07-07 15:00:26.110 ,1,0,,0,88.,4.8,9.,4.8,,0,0.,4.8,13.,4.8
1979-07-07 15:00:30.910 ,1,0,,0,82.,4.8,7.,4.8,,0,0.,4.8,19.,4.8
1979-07-07 15:00:35.710 ,1,0,,0,46.,4.8,3.,4.8,,0,0.,4.8,24.,4.8
1979-07-07 15:00:40.510 ,1,0,,0,1.,4.8,0.,4.8,,0,0.,4.8,15.,4.8
1979-07-07 15:00:45.310 ,1,0,,0,0.,4.8,0.,4.8,,0,0.,4.8,12.,4.8
1979-07-07 15:00:50.100 ,2,0,,0,0.,4.8,0.,4.8,,0,0.,4.8,19.,4.8
1979-07-07 15:00:54.910 ,2,0,,0,0.,4.8,0.,4.8,,0,0.,4.8,18.,4.8
1979-07-07 15:00:59.710 ,2,0,,0,11.,4.8,3.,4.8,,0,0.,4.8,21.,4.8
1979-07-07 15:01:04.510 ,2,0,,0,84.,4.8,11.,4.8,,0,0.,4.8,25.,4.8
1979-07-07 15:01:09.310 ,2,0,,0,70.,4.8,8.,4.8,,0,0.,4.8,29.,4.8
1979-07-07 15:01:14.110 ,2,0,,0,76.,4.8,10.,4.8,,0,0.,4.8,14.,4.8
1979-07-07 15:01:18.910 ,2,0,,0,80.,4.8,4.,4.8,,0,0.,4.8,23.,4.8
1979-07-07 15:01:23.710 ,2,0,,0,84.,4.8,10.,4.8,,0,0.,4.8,23.,4.8
1979-07-07 15:01:28.510 ,2,0,,0,0.,4.8,0.,4.8,,0,0.,4.8,29.,4.8
1979-07-07 15:01:33.310 ,2,0,,0,1.,4.8,0.,4.8,,0,0.,4.8,17.,4.8
1979-07-07 15:01:38.110 ,3,0,,0,0.,4.8,0.,4.8,,0,0.,4.8,27.,4.8
1979-07-07 15:01:42.910 ,3,0,,0,1.,4.8,0.,4.8,,0,0.,4.8,25.,4.8
1979-07-07 15:01:47.710 ,3,0,,0,13.,4.8,1.,4.8,,0,0.,4.8,31.,4.8
1979-07-07 15:01:52.510 ,3,0,,0,78.,4.8,11.,4.8,,0,0.,4.8,19.,4.8
1979-07-07 15:01:57.310 ,3,0,,0,92.,4.8,7.,4.8,,0,0.,4.8,27.,4.8
1979-07-07 15:02:02.110 ,3,0,,0,76.,4.8,2.,4.8,,0,0.,4.8,18.,4.8
1979-07-07 15:02:06.910 ,3,0,,0,72.,4.8,5.,4.8,,0,0.,4.8,22.,4.8
1979-07-07 15:02:11.710 ,3,0,,0,82.,4.8,5.,4.8,,0,0.,4.8,27.,4.8
1979-07-07 15:02:16.510 ,3,0,,0,1.,4.8,0.,4.8,,0,0.,4.8,19.,4.8
1979-07-07 15:02:21.310 ,3,0,,0,1.,4.8,0.,4.8,,0,0.,4.8,23.,4.8
1979-07-07 15:02:26.100 ,4,0,,0,1.,4.8,0.,4.8,,0,0.,4.8,30.,4.8
1979-07-07 15:02:30.900 ,4,0,,0,1.,4.8,0.,4.8,,0,0.,4.8,41.,4.8
1979-07-07 15:02:35.710 ,4,0,,0,33.,4.8,4.,4.8,,0,0.,4.8,66.,4.8
1979-07-07 15:02:40.510 ,4,0,,0,176.,4.8,18.,4.8,,0,0.,4.8,54.,4.8
1979-07-07 15:02:45.310 ,4,0,,0,200.,4.8,27.,4.8,,0,0.,4.8,64.,4.8
1979-07-07 15:02:50.100 ,4,0,,0,196.,4.8,18.,4.8,,0,0.,4.8,70.,4.8
1979-07-07 15:02:54.900 ,4,0,,0,188.,4.8,10.,4.8,,0,0.,4.8,68.,4.8
1979-07-07 15:02:59.710 ,4,0,,0,168.,4.8,12.,4.8,,0,0.,4.8,74.,4.8
1979-07-07 15:03:04.510 ,4,0,,0,1.,4.8,0.,4.8,,0,0.,4.8,55.,4.8
1979-07-07 15:03:09.310 ,4,0,,0,0.,4.8,0.,4.8,,0,0.,4.8,72.,4.8
1979-07-07 15:03:14.100 ,5,0,,0,0.,4.8,0.,4.8,,0,0.,4.8,76.,4.8
1979-07-07 15:03:18.900 ,5,0,,0,1.,4.8,0.,4.8,,0,0.,4.8,112.,4.8
1979-07-07 15:03:23.710 ,5,0,,0,49.,4.8,4.,4.8,,0,0.,4.8,118.,4.8
1979-07-07 15:03:28.510 ,5,0,,0,368.,4.8,40.,4.8,,0,0.,4.8,126.,4.8
1979-07-07 15:03:33.310 ,5,0,,0,376.,4.8,43.,4.8,,0,0.,4.8,128.,4.8
1979-07-07 15:03:38.100 ,5,0,,0,360.,4.8,39.,4.8,,0,0.,4.8,120.,4.8
1979-07-07 15:03:42.900 ,5,0,,0,336.,4.8,34.,4.8,,0,0.,4.8,144.,4.8
1979-07-07 15:03:47.710 ,5,0,,0,336.,4.8,55.,4.8,,0,0.,4.8,126.,4.8
1979-07-07 15:03:52.510 ,5,0,,0,0.,4.8,0.,4.8,,0,0.,4.8,128.,4.8
1979-07-07 15:03:57.310 ,5,0,,0,2.,4.8,0.,4.8,,0,0.,4.8,124.,4.8
1979-07-07 15:04:02.100 ,6,0,,0,1.,4.8,0.,4.8,,0,0.,4.8,136.,4.8
1979-07-07 15:04:06.900 ,6,0,,0,1.,4.8,0.,4.8,,0,0.,4.8,98.,4.8
1979-07-07 15:04:11.710 ,6,0,,0,50.,4.8,6.,4.8,,0,0.,4.8,86.,4.8
1979-07-07 15:04:16.510 ,6,0,,0,264.,4.8,25.,4.8,,0,0.,4.8,84.,4.8
1979-07-07 15:04:21.300 ,6,0,,0,272.,4.8,31.,4.8,,0,0.,4.8,84.,4.8
1979-07-07 15:04:26.110 ,6,0,,0,264.,4.8,26.,4.8,,0,0.,4.8,86.,4.8
1979-07-07 15:04:30.910 ,6,0,,0,272.,4.8,36.,4.8,,0,0.,4.8,88.,4.8
1979-07-07 15:04:35.710 ,6,0,,0,248.,4.8,35.,4.8,,0,0.,4.8,90.,4.8
1979-07-07 15:04:40.510 ,6,0,,0,0.,4.8,0.,4.8,,0,0.,4.8,98.,4.8
1979-07-07 15:04:45.310 ,6,0,,0,0.,4.8,0.,4.8,,0,0.,4.8,70.,4.8
1979-07-07 15:04:50.110 ,7,0,,0,1.,4.8,0.,4.8,,0,0.,4.8,112.,4.8
1979-07-07 15:04:54.910 ,7,0,,0,0.,4.8,0.,4.8,,0,0.,4.8,57.,4.8
1979-07-07 15:04:59.710 ,7,0,,0,2.,4.8,0.,4.8,,0,0.,4.8,0.,4.8
1979-07-07 15:05:04.510 ,7,0,,0,6.,4.8,0.,4.8,,0,0.,4.8,0.,4.8
1979-07-07 15:05:09.310 ,7,0,,0,6.,4.8,0.,4.8,,0,0.,4.8,0.,4.8
1979-07-07 15:05:14.110 ,7,0,,0,6.,4.8,0.,4.8,,0,0.,4.8,0.,4.8
1979-07-07 15:05:18.910 ,7,0,,0,10.,4.8,0.,4.8,,0,0.,4.8,0.,4.8
1979-07-07 15:05:23.710 ,7,0,,0,6.,4.8,0.,4.8,,0,0.,4.8,0.,4.8
1979-07-07 15:05:28.510 ,7,0,,0,1.,4.8,0.,4.8,,0,0.,4.8,0.,4.8
1979-07-07 15:05:33.310 ,7,0,,0,0.,4.8,0.,4.8,,0,0.,4.8,0.,4.8
1979-07-07 15:05:38.110 ,7,0,,0,0.,4.8,0.,4.8,,0,0.,4.8,0.,4.8
1979-07-07 15:05:42.900 ,7,0,,0,3.,4.8,0.,4.8,,0,0.,4.8,0.,4.8
1979-07-07 15:05:47.710 ,7,0,,0,2.,4.8,0.,4.8,,0,0.,4.8,0.,4.8
1979-07-07 15:05:52.510 ,7,0,,0,12.,4.8,0.,4.8,,0,0.,4.8,0.,4.8
1979-07-07 15:05:57.310 ,7,0,,0,10.,4.8,0.,4.8,,0,0.,4.8,0.,4.8
1979-07-07 15:06:02.110 ,7,0,,0,15.,4.8,0.,4.8,,0,0.,4.8,0.,4.8
1979-07-07 15:06:06.900 ,7,0,,0,10.,4.8,0.,4.8,,0,0.,4.8,0.,4.8
1979-07-07 15:06:11.710 ,7,0,,0,7.,4.8,0.,4.8,,0,0.,4.8,0.,4.8
1979-07-07 15:06:16.510 ,7,0,,0,0.,4.8,0.,4.8,,0,0.,4.8,0.,4.8
1979-07-07 15:06:21.310 ,7,0,,0,0.,4.8,0.,4.8,,0,0.,4.8,0.,4.8
1979-07-07 15:06:26.110 ,6,0,,0,3.,4.8,0.,4.8,,0,0.,4.8,0.,4.8
1979-07-07 15:06:30.910 ,6,0,,0,0.,4.8,0.,4.8,,0,0.,4.8,15.,4.8
1979-07-07 15:06:35.710 ,6,0,,0,38.,4.8,3.,4.8,,0,0.,4.8,60.,4.8
1979-07-07 15:06:40.510 ,6,0,,0,192.,4.8,29.,4.8,,0,0.,4.8,63.,4.8
1979-07-07 15:06:45.310 ,6,0,,0,208.,4.8,20.,4.8,,0,0.,4.8,68.,4.8
1979-07-07 15:06:50.110 ,6,0,,0,204.,4.8,25.,4.8,,0,0.,4.8,72.,4.8
1979-07-07 15:06:54.900 ,6,0,,0,216.,4.8,21.,4.8,,0,0.,4.8,60.,4.8
1979-07-07 15:06:59.710 ,6,0,,0,168.,4.8,17.,4.8,,0,0.,4.8,49.,4.8
1979-07-07 15:07:04.510 ,6,0,,0,0.,4.8,0.,4.8,,0,0.,4.8,66.,4.8
1979-07-07 15:07:09.310 ,6,0,,0,0.,4.8,0.,4.8,,0,0.,4.8,61.,4.8
1979-07-07 15:07:14.110 ,5,0,,0,1.,4.8,0.,4.8,,0,0.,4.8,47.,4.8
1979-07-07 15:07:18.910 ,5,0,,0,0.,4.8,0.,4.8,,0,0.,4.8,66.,4.8
1979-07-07 15:07:23.710 ,5,0,,0,63.,4.8,8.,4.8,,0,0.,4.8,82.,4.8
1979-07-07 15:07:28.510 ,5,0,,0,296.,4.8,29.,4.8,,0,0.,4.8,112.,4.8
1979-07-07 15:07:33.310 ,5,0,,0,272.,4.8,33.,4.8,,0,0.,4.8,128.,4.8
1979-07-07 15:07:38.110 ,5,0,,0,264.,4.8,37.,4.8,,0,0.,4.8,94.,4.8
1979-07-07 15:07:42.900 ,5,0,,0,272.,4.8,34.,4.8,,0,0.,4.8,114.,4.8
1979-07-07 15:07:47.710 ,5,0,,0,240.,4.8,29.,4.8,,0,0.,4.8,108.,4.8
1979-07-07 15:07:52.510 ,5,0,,0,0.,4.8,0.,4.8,,0,0.,4.8,114.,4.8
1979-07-07 15:07:57.310 ,5,0,,0,0.,4.8,0.,4.8,,0,0.,4.8,98.,4.8
1979-07-07 15:08:02.110 ,4,0,,0,0.,4.8,0.,4.8,,0,0.,4.8,112.,4.8
1979-07-07 15:08:06.900 ,4,0,,0,0.,4.8,0.,4.8,,0,0.,4.8,82.,4.8
1979-07-07 15:08:11.710 ,4,0,,0,16.,4.8,2.,4.8,,0,0.,4.8,54.,4.8
1979-07-07 15:08:16.510 ,4,0,,0,126.,4.8,12.,4.8,,0,0.,4.8,60.,4.8
1979-07-07 15:08:21.310 ,4,0,,0,120.,4.8,15.,4.8,,0,0.,4.8,54.,4.8
1979-07-07 15:08:26.110 ,4,0,,0,106.,4.8,11.,4.8,,0,0.,4.8,39.,4.8
1979-07-07 15:08:30.910 ,4,0,,0,116.,4.8,12.,4.8,,0,0.,4.8,57.,4.8
1979-07-07 15:08:35.710 ,4,0,,0,96.,4.8,13.,4.8,,0,0.,4.8,44.,4.8
1979-07-07 15:08:40.510 ,4,0,,0,1.,4.8,0.,4.8,,0,0.,4.8,33.,4.8
1979-07-07 15:08:45.310 ,4,0,,0,0.,4.8,0.,4.8,,0,0.,4.8,47.,4.8
1979-07-07 15:08:50.100 ,3,0,,0,2.,4.8,0.,4.8,,0,0.,4.8,48.,4.8
1979-07-07 15:08:54.900 ,3,0,,0,0.,4.8,0.,4.8,,0,0.,4.8,42.,4.8
1979-07-07 15:08:59.710 ,3,0,,0,11.,4.8,2.,4.8,,0,0.,4.8,21.,4.8
1979-07-07 15:09:04.510 ,3,0,,0,60.,4.8,3.,4.8,,0,0.,4.8,20.,4.8
1979-07-07 15:09:09.300 ,3,0,,0,64.,4.8,9.,4.8,,0,0.,4.8,26.,4.8
1979-07-07 15:09:14.100 ,3,0,,0,57.,4.8,5.,4.8,,0,0.,4.8,18.,4.8
1979-07-07 15:09:18.900 ,3,0,,0,61.,4.8,5.,4.8,,0,0.,4.8,12.,4.8
1979-07-07 15:09:23.710 ,3,0,,0,56.,4.8,3.,4.8,,0,0.,4.8,20.,4.8
1979-07-07 15:09:28.510 ,3,0,,0,0.,4.8,0.,4.8,,0,0.,4.8,21.,4.8
1979-07-07 15:09:33.300 ,3,0,,0,1.,4.8,0.,4.8,,0,0.,4.8,20.,4.8
1979-07-07 15:09:38.100 ,2,0,,0,0.,4.8,0.,4.8,,0,0.,4.8,24.,4.8
1979-07-07 15:09:42.900 ,2,0,,0,0.,4.8,0.,4.8,,0,0.,4.8,24.,4.8
1979-07-07 15:09:47.710 ,2,0,,0,11.,4.8,1.,4.8,,0,0.,4.8,13.,4.8
1979-07-07 15:09:52.510 ,2,0,,0,55.,4.8,8.,4.8,,0,0.,4.8,29.,4.8
1979-07-07 15:09:57.300 ,2,0,,0,70.,4.8,11.,4.8,,0,0.,4.8,10.,4.8
1979-07-07 15:10:02.100 ,2,0,,0,64.,4.8,6.,4.8,,0,0.,4.8,17.,4.8
1979-07-07 15:10:06.900 ,2,0,,0,70.,4.8,5.,4.8,,0,0.,4.8,23.,4.8
1979-07-07 15:10:11.710 ,2,0,,0,56.,4.8,10.,4.8,,0,0.,4.8,12.,4.8
1979-07-07 15:10:16.510 ,2,0,,0,0.,4.8,0.,4.8,,0,0.,4.8,8.,4.8
1979-07-07 15:10:21.300 ,2,0,,0,1.,4.8,0.,4.8,,0,0.,4.8,15.,4.8
1979-07-07 15:10:26.100 ,1,0,,0,0.,4.8,0.,4.8,,0,0.,4.8,24.,4.8
1979-07-07 15:10:30.900 ,1,0,,0,0.,4.8,0.,4.8,,0,0.,4.8,14.,4.8
1979-07-07 15:10:35.710 ,1,0,,0,10.,4.8,0.,4.8,,0,0.,4.8,14.,4.8
1979-07-07 15:10:40.510 ,1,0,,0,50.,4.8,4.,4.8,,0,0.,4.8,12.,4.8
1979-07-07 15:10:45.300 ,1,0,,0,59.,4.8,4.,4.8,,0,0.,4.8,9.,4.8
1979-07-07 15:10:50.100 ,1,0,,0,54.,4.8,5.,4.8,,0,0.,4.8,25.,4.8
1979-07-07 15:10:54.900 ,1,0,,0,63.,4.8,4.,4.8,,0,0.,4.8,9.,4.8
1979-07-07 15:10:59.700 ,1,0,,0,47.,4.8,3.,4.8,,0,0.,4.8,12.,4.8
1979-07-07 15:11:04.510 ,1,0,,0,2.,4.8,0.,4.8,,0,0.,4.8,15.,4.8
1979-07-07 15:11:09.300 ,1,0,,0,2.,4.8,0.,4.8,,0,0.,4.8,16.,4.8
1979-07-07 15:11:14.100 ,0,0,,0,1.,4.8,0.,4.8,,0,0.,4.8,22.,4.8
1979-07-07 15:11:18.900 ,0,0,,0,0.,4.8,0.,4.8,,0,0.,4.8,9.,4.8
1979-07-07 15:11:23.710 ,0,0,,0,15.,4.8,2.,4.8,,0,0.,4.8,20.,4.8
1979-07-07 15:11:28.510 ,0,0,,0,68.,4.8,4.,4.8,,0,0.,4.8,16.,4.8
1979-07-07 15:11:33.300 ,0,0,,0,72.,4.8,6.,4.8,,0,0.,4.8,18.,4.8
1979-07-07 15:11:38.100 ,0,0,,0,70.,4.8,6.,4.8,,0,0.,4.8,9.,4.8
1979-07-07 15:11:42.900 ,0,0,,0,72.,4.8,7.,4.8,,0,0.,4.8,20.,4.8
1979-07-07 15:11:47.710 ,0,0,,0,63.,4.8,6.,4.8,,0,0.,4.8,19.,4.8
1979-07-07 15:11:52.510 ,0,0,,0,1.,4.8,0.,4.8,,0,0.,4.8,17.,4.8
1979-07-07 15:11:57.300 ,0,0,,0,1.,4.8,0.,4.8,,0,0.,4.8,22.,4.8
1979-07-07 15:12:02.100 ,0,0,,0,,0,,0,,0,,0,,0
1979-07-07 15:12:06.900 ,0,0,,0,0.,4.8,0.,4.8,,0,0.,4.8,17.,4.8
1979-07-07 15:12:11.710 ,0,0,,0,19.,4.8,2.,4.8,,0,0.,4.8,18.,4.8
1979-07-07 15:12:16.510 ,0,0,,0,76.,4.8,6.,4.8,,0,0.,4.8,18.,4.8
1979-07-07 15:12:21.300 ,0,0,,0,74.,4.8,5.,4.8,,0,0.,4.8,17.,4.8
1979-07-07 15:12:26.100 ,0,0,,0,74.,4.8,5.,4.8,,0,0.,4.8,27.,4.8
1979-07-07 15:12:30.900 ,0,0,,0,53.,4.8,4.,4.8,,0,0.,4.8,15.,4.8
1979-07-07 15:12:35.710 ,0,0,,0,54.,4.8,3.,4.8,,0,0.,4.8,14.,4.8
1979-07-07 15:12:40.510 ,0,0,,0,2.,4.8,0.,4.8,,0,0.,4.8,24.,4.8
1979-07-07 15:12:45.300 ,0,0,,0,1.,4.8,0.,4.8,,0,0.,4.8,19.,4.8
1979-07-07 15:12:50.100 ,1,0,,0,0.,4.8,0.,4.8,,0,0.,4.8,23.,4.8
1979-07-07 15:12:54.900 ,1,0,,0,1.,4.8,0.,4.8,,0,0.,4.8,13.,4.8
1979-07-07 15:12:59.700 ,1,0,,0,19.,4.8,2.,4.8,,0,0.,4.8,17.,4.8
1979-07-07 15:13:04.510 ,1,0,,0,64.,4.8,9.,4.8,,0,0.,4.8,17.,4.8
1979-07-07 15:13:09.300 ,1,0,,0,70.,4.8,10.,4.8,,0,0.,4.8,13.,4.8
1979-07-07 15:13:14.100 ,1,0,,0,74.,4.8,9.,4.8,,0,0.,4.8,16.,4.8
1979-07-07 15:13:18.900 ,1,0,,0,70.,4.8,6.,4.8,,0,0.,4.8,19.,4.8
1979-07-07 15:13:23.710 ,1,0,,0,60.,4.8,4.,4.8,,0,0.,4.8,14.,4.8
1979-07-07 15:13:28.510 ,1,0,,0,1.,4.8,0.,4.8,,0,0.,4.8,23.,4.8
1979-07-07 15:13:33.300 ,1,0,,0,1.,4.8,0.,4.8,,0,0.,4.8,10.,4.8
1979-07-07 15:14:26.100 ,0,0,,0,0.,4.8,0.,4.8,,0,0.,4.8,24.,4.8
1979-07-07 15:14:30.900 ,0,0,,0,1.,4.8,0.,4.8,,0,0.,4.8,20.,4.8
1979-07-07 15:14:35.710 ,0,0,,0,23.,4.8,2.,4.8,,0,0.,4.8,29.,4.8
1979-07-07 15:14:40.510 ,0,0,,0,102.,4.8,8.,4.8,,0,0.,4.8,38.,4.8
1979-07-07 15:14:45.300 ,0,0,,0,98.,4.8,10.,4.8,,0,0.,4.8,37.,4.8
1979-07-07 15:14:50.100 ,0,0,,0,110.,4.8,14.,4.8,,0,0.,4.8,28.,4.8
1979-07-07 15:14:54.900 ,0,0,,0,112.,4.8,9.,4.8,,0,0.,4.8,32.,4.8
1979-07-07 15:14:59.700 ,0,0,,0,86.,4.8,10.,4.8,,0,0.,4.8,41.,4.8
1979-07-07 15:15:04.510 ,0,0,,0,3.,4.8,0.,4.8,,0,0.,4.8,44.,4.8
1979-07-07 15:15:09.300 ,0,0,,0,0.,4.8,0.,4.8,,0,0.,4.8,30.,4.8
1979-07-07 15:14:50.100 ,0,0,,0,110.,4.8,14.,4.8,,0,0.,4.8,28.,4.8
1979-07-07 15:14:54.900 ,0,0,,0,112.,4.8,9.,4.8,,0,0.,4.8,32.,4.8
1979-07-07 15:14:59.700 ,0,0,,0,86.,4.8,10.,4.8,,0,0.,4.8,41.,4.8
1979-07-07 15:15:04.510 ,0,0,,0,3.,4.8,0.,4.8,,0,0.,4.8,44.,4.8
1979-07-07 15:15:09.300 ,0,0,,0,0.,4.8,0.,4.8,,0,0.,4.8,30.,4.8
1979-07-07 15:15:14.100 ,4,0,,0,1.,4.8,0.,4.8,,0,0.,4.8,32.,4.8
1979-07-07 15:15:18.900 ,4,0,,0,1.,4.8,0.,4.8,,0,0.,4.8,56.,4.8
1979-07-07 15:15:23.700 ,4,0,,0,50.,4.8,2.,4.8,,0,0.,4.8,110.,4.8
1979-07-07 15:15:28.500 ,4,0,,0,264.,4.8,24.,4.8,,0,0.,4.8,94.,4.8
1979-07-07 15:15:33.300 ,4,0,,0,272.,4.8,25.,4.8,,0,0.,4.8,98.,4.8
1979-07-07 15:15:38.100 ,4,0,,0,272.,4.8,30.,4.8,,0,0.,4.8,84.,4.8
1979-07-07 15:15:42.900 ,4,0,,0,244.,4.8,29.,4.8,,0,0.,4.8,96.,4.8
1979-07-07 15:15:47.700 ,4,0,,0,228.,4.8,27.,4.8,,0,0.,4.8,100.,4.8
1979-07-07 15:15:52.500 ,4,0,,0,0.,4.8,0.,4.8,,0,0.,4.8,84.,4.8
1979-07-07 15:15:57.300 ,4,0,,0,1.,4.8,0.,4.8,,0,0.,4.8,100.,4.8
1979-07-07 15:16:02.100 ,5,0,,0,0.,4.8,0.,4.8,,0,0.,4.8,80.,4.8
1979-07-07 15:16:06.900 ,5,0,,0,2.,4.8,0.,4.8,,0,0.,4.8,110.,4.8
1979-07-07 15:16:11.700 ,5,0,,0,84.,4.8,10.,4.8,,0,0.,4.8,156.,4.8
1979-07-07 15:16:16.500 ,5,0,,0,464.,4.8,47.,4.8,,0,0.,4.8,176.,4.8
1979-07-07 15:16:21.300 ,5,0,,0,440.,4.8,41.,4.8,,0,0.,4.8,168.,4.8
1979-07-07 15:16:26.100 ,5,0,,0,440.,4.8,45.,4.8,,0,0.,4.8,136.,4.8
1979-07-07 15:16:30.900 ,5,0,,0,400.,4.8,45.,4.8,,0,0.,4.8,176.,4.8
1979-07-07 15:16:35.700 ,5,0,,0,352.,4.8,37.,4.8,,0,0.,4.8,136.,4.8
1979-07-07 15:16:40.500 ,5,0,,0,0.,4.8,0.,4.8,,0,0.,4.8,176.,4.8
1979-07-07 15:16:45.300 ,5,0,,0,0.,4.8,0.,4.8,,0,0.,4.8,164.,4.8
1979-07-07 15:16:50.100 ,6,0,,0,1.,4.8,0.,4.8,,0,0.,4.8,124.,4.8
1979-07-07 15:16:54.900 ,6,0,,0,1.,4.8,0.,4.8,,0,0.,4.8,122.,4.8
1979-07-07 15:16:59.700 ,6,0,,0,41.,4.8,6.,4.8,,0,0.,4.8,76.,4.8
1979-07-07 15:17:04.500 ,6,0,,0,288.,4.8,29.,4.8,,0,0.,4.8,90.,4.8
1979-07-07 15:17:09.300 ,6,0,,0,280.,4.8,40.,4.8,,0,0.,4.8,84.,4.8
1979-07-07 15:17:14.100 ,6,0,,0,244.,4.8,32.,4.8,,0,0.,4.8,90.,4.8
1979-07-07 15:17:18.900 ,6,0,,0,272.,4.8,28.,4.8,,0,0.,4.8,82.,4.8
1979-07-07 15:17:23.700 ,6,0,,0,228.,4.8,33.,4.8,,0,0.,4.8,100.,4.8
1979-07-07 15:17:28.500 ,6,0,,0,1.,4.8,0.,4.8,,0,0.,4.8,100.,4.8
1979-07-07 15:17:33.300 ,6,0,,0,0.,4.8,0.,4.8,,0,0.,4.8,86.,4.8
1979-07-07 15:17:38.100 ,7,0,,0,1.,4.8,0.,4.8,,0,0.,4.8,80.,4.8
1979-07-07 15:17:42.900 ,7,0,,0,0.,4.8,0.,4.8,,0,0.,4.8,53.,4.8
1979-07-07 15:17:47.700 ,7,0,,0,4.,4.8,0.,4.8,,0,0.,4.8,0.,4.8
1979-07-07 15:17:52.500 ,7,0,,0,11.,4.8,0.,4.8,,0,0.,4.8,1.,4.8
1979-07-07 15:17:57.300 ,7,0,,0,11.,4.8,0.,4.8,,0,0.,4.8,0.,4.8
1979-07-07 15:18:02.100 ,7,0,,0,11.,4.8,0.,4.8,,0,0.,4.8,0.,4.8
1979-07-07 15:18:06.900 ,7,0,,0,13.,4.8,0.,4.8,,0,0.,4.8,0.,4.8
1979-07-07 15:18:11.700 ,7,0,,0,4.,4.8,0.,4.8,,0,0.,4.8,0.,4.8
1979-07-07 15:18:16.500 ,7,0,,0,0.,4.8,0.,4.8,,0,0.,4.8,0.,4.8
1979-07-07 15:18:21.300 ,7,0,,0,1.,4.8,0.,4.8,,0,0.,4.8,0.,4.8
1979-07-07 15:18:26.100 ,7,0,,0,1.,4.8,0.,4.8,,0,0.,4.8,0.,4.8
1979-07-07 15:18:30.900 ,7,0,,0,1.,4.8,0.,4.8,,0,0.,4.8,0.,4.8
1979-07-07 15:18:35.700 ,7,0,,0,3.,4.8,0.,4.8,,0,0.,4.8,0.,4.8
1979-07-07 15:18:40.500 ,7,0,,0,15.,4.8,0.,4.8,,0,0.,4.8,0.,4.8
1979-07-07 15:18:45.300 ,7,0,,0,7.,4.8,0.,4.8,,0,0.,4.8,0.,4.8
1979-07-07 15:18:50.100 ,7,0,,0,8.,4.8,0.,4.8,,0,0.,4.8,0.,4.8
1979-07-07 15:18:54.900 ,7,0,,0,12.,4.8,0.,4.8,,0,0.,4.8,0.,4.8
1979-07-07 15:18:59.700 ,7,0,,0,7.,4.8,0.,4.8,,0,0.,4.8,0.,4.8
1979-07-07 15:19:04.500 ,7,0,,0,1.,4.8,0.,4.8,,0,0.,4.8,0.,4.8
1979-07-07 15:19:09.300 ,7,0,,0,1.,4.8,0.,4.8,,0,0.,4.8,0.,4.8
1979-07-07 15:19:14.100 ,6,0,,0,0.,4.8,0.,4.8,,0,0.,4.8,0.,4.8
1979-07-07 15:19:18.900 ,6,0,,0,0.,4.8,0.,4.8,,0,0.,4.8,48.,4.8
1979-07-07 15:19:23.700 ,6,0,,0,70.,4.8,9.,4.8,,0,0.,4.8,106.,4.8
1979-07-07 15:19:28.500 ,6,0,,0,336.,4.8,44.,4.8,,0,0.,4.8,118.,4.8
1979-07-07 15:19:33.300 ,6,0,,0,344.,4.8,35.,4.8,,0,0.,4.8,114.,4.8
1979-07-07 15:19:38.100 ,6,0,,0,344.,4.8,40.,4.8,,0,0.,4.8,112.,4.8
1979-07-07 15:19:42.900 ,6,0,,0,352.,4.8,35.,4.8,,0,0.,4.8,114.,4.8
1979-07-07 15:19:47.700 ,6,0,,0,304.,4.8,37.,4.8,,0,0.,4.8,128.,4.8
1979-07-07 15:19:52.500 ,6,0,,0,0.,4.8,0.,4.8,,0,0.,4.8,132.,4.8
1979-07-07 15:19:57.300 ,6,0,,0,0.,4.8,0.,4.8,,0,0.,4.8,110.,4.8
1979-07-07 15:20:02.100 ,5,0,,0,0.,4.8,0.,4.8,,0,0.,4.8,136.,4.8
1979-07-07 15:20:06.900 ,5,0,,0,1.,4.8,0.,4.8,,0,0.,4.8,144.,4.8
1979-07-07 15:20:11.700 ,5,0,,0,84.,4.8,13.,4.8,,0,0.,4.8,164.,4.8
1979-07-07 15:20:16.500 ,5,0,,0,480.,4.8,55.,4.8,,0,0.,4.8,152.,4.8
1979-07-07 15:20:21.300 ,5,0,,0,464.,4.8,44.,4.8,,0,0.,4.8,128.,4.8
1979-07-07 15:20:26.100 ,5,0,,0,472.,4.8,57.,4.8,,0,0.,4.8,152.,4.8
1979-07-07 15:20:30.900 ,5,0,,0,464.,4.8,55.,4.8,,0,0.,4.8,172.,4.8
1979-07-07 15:20:35.700 ,5,0,,0,416.,4.8,34.,4.8,,0,0.,4.8,184.,4.8
1979-07-07 15:20:40.500 ,5,0,,0,0.,4.8,0.,4.8,,0,0.,4.8,152.,4.8
1979-07-07 15:20:45.300 ,5,0,,0,3.,4.8,0.,4.8,,0,0.,4.8,148.,4.8
1979-07-07 15:20:50.100 ,4,0,,0,0.,4.8,0.,4.8,,0,0.,4.8,164.,4.8
1979-07-07 15:20:54.900 ,4,0,,0,1.,4.8,0.,4.8,,0,0.,4.8,160.,4.8
1979-07-07 15:20:59.700 ,4,0,,0,56.,4.8,9.,4.8,,0,0.,4.8,94.,4.8
1979-07-07 15:21:04.500 ,4,0,,0,280.,4.8,39.,4.8,,0,0.,4.8,108.,4.8
1979-07-07 15:21:09.300 ,4,0,,0,288.,4.8,33.,4.8,,0,0.,4.8,114.,4.8
1979-07-07 15:21:14.100 ,4,0,,0,296.,4.8,34.,4.8,,0,0.,4.8,100.,4.8
1979-07-07 15:21:18.900 ,4,0,,0,328.,4.8,28.,4.8,,0,0.,4.8,86.,4.8
1979-07-07 15:21:23.700 ,4,0,,0,264.,4.8,28.,4.8,,0,0.,4.8,82.,4.8
1979-07-07 15:21:28.500 ,4,0,,0,1.,4.8,0.,4.8,,0,0.,4.8,90.,4.8
1979-07-07 15:21:33.300 ,4,0,,0,1.,4.8,0.,4.8,,0,0.,4.8,96.,4.8
1979-07-07 15:21:38.100 ,3,0,,0,0.,4.8,0.,4.8,,0,0.,4.8,112.,4.8
1979-07-07 15:21:42.900 ,3,0,,0,0.,4.8,0.,4.8,,0,0.,4.8,86.,4.8
1979-07-07 15:21:47.700 ,3,0,,0,18.,4.8,0.,4.8,,0,0.,4.8,46.,4.8
1979-07-07 15:21:52.500 ,3,0,,0,126.,4.8,13.,4.8,,0,0.,4.8,48.,4.8
1979-07-07 15:21:57.300 ,3,0,,0,148.,4.8,12.,4.8,,0,0.,4.8,47.,4.8
1979-07-07 15:22:02.100 ,3,0,,0,132.,4.8,8.,4.8,,0,0.,4.8,49.,4.8
1979-07-07 15:22:06.900 ,3,0,,0,156.,4.8,8.,4.8,,0,0.,4.8,57.,4.8
1979-07-07 15:22:11.700 ,3,0,,0,126.,4.8,9.,4.8,,0,0.,4.8,44.,4.8
1979-07-07 15:22:16.500 ,3,0,,0,0.,4.8,0.,4.8,,0,0.,4.8,60.,4.8
1979-07-07 15:22:21.300 ,3,0,,0,2.,4.8,0.,4.8,,0,0.,4.8,48.,4.8
1979-07-07 15:22:26.100 ,2,0,,0,0.,4.8,0.,4.8,,0,0.,4.8,48.,4.8
1979-07-07 15:22:30.900 ,2,0,,0,0.,4.8,0.,4.8,,0,0.,4.8,43.,4.8
1979-07-07 15:22:35.700 ,2,0,,0,21.,4.8,2.,4.8,,0,0.,4.8,32.,4.8
1979-07-07 15:22:40.500 ,2,0,,0,118.,4.8,10.,4.8,,0,0.,4.8,30.,4.8
1979-07-07 15:22:45.300 ,2,0,,0,122.,4.8,10.,4.8,,0,0.,4.8,39.,4.8
1979-07-07 15:22:50.100 ,2,0,,0,126.,4.8,11.,4.8,,0,0.,4.8,28.,4.8
1979-07-07 15:22:54.900 ,2,0,,0,120.,4.8,9.,4.8,,0,0.,4.8,25.,4.8
1979-07-07 15:22:59.700 ,2,0,,0,88.,4.8,12.,4.8,,0,0.,4.8,38.,4.8
1979-07-07 15:23:04.500 ,2,0,,0,1.,4.8,0.,4.8,,0,0.,4.8,30.,4.8
1979-07-07 15:23:09.300 ,2,0,,0,0.,4.8,0.,4.8,,0,0.,4.8,31.,4.8
1979-07-07 15:23:14.100 ,1,0,,0,0.,4.8,0.,4.8,,0,0.,4.8,43.,4.8
1979-07-07 15:23:18.900 ,1,0,,0,1.,4.8,0.,4.8,,0,0.,4.8,36.,4.8
1979-07-07 15:23:23.700 ,1,0,,0,20.,4.8,3.,4.8,,0,0.,4.8,25.,4.8
1979-07-07 15:23:28.500 ,1,0,,0,120.,4.8,17.,4.8,,0,0.,4.8,26.,4.8
1979-07-07 15:23:33.300 ,1,0,,0,114.,4.8,11.,4.8,,0,0.,4.8,20.,4.8
1979-07-07 15:23:38.100 ,1,0,,0,100.,4.8,5.,4.8,,0,0.,4.8,21.,4.8
1979-07-07 15:23:42.900 ,1,0,,0,114.,4.8,12.,4.8,,0,0.,4.8,20.,4.8
1979-07-07 15:23:47.700 ,1,0,,0,84.,4.8,10.,4.8,,0,0.,4.8,35.,4.8
1979-07-07 15:23:52.500 ,1,0,,0,1.,4.8,0.,4.8,,0,0.,4.8,35.,4.8
1979-07-07 15:23:57.300 ,1,0,,0,0.,4.8,0.,4.8,,0,0.,4.8,29.,4.8
1979-07-07 15:24:02.100 ,0,0,,0,1.,4.8,0.,4.8,,0,0.,4.8,28.,4.8
1979-07-07 15:24:06.900 ,0,0,,0,3.,4.8,0.,4.8,,0,0.,4.8,29.,4.8
1979-07-07 15:24:11.700 ,0,0,,0,24.,4.8,1.,4.8,,0,0.,4.8,50.,4.8
1979-07-07 15:24:16.500 ,0,0,,0,152.,4.8,15.,4.8,,0,0.,4.8,57.,4.8
1979-07-07 15:24:21.300 ,0,0,,0,160.,4.8,14.,4.8,,0,0.,4.8,45.,4.8
1979-07-07 15:24:26.100 ,0,0,,0,144.,4.8,13.,4.8,,0,0.,4.8,32.,4.8
1979-07-07 15:24:30.900 ,0,0,,0,172.,4.8,19.,4.8,,0,0.,4.8,35.,4.8
1979-07-07 15:24:35.700 ,0,0,,0,148.,4.8,18.,4.8,,0,0.,4.8,38.,4.8
1979-07-07 15:24:40.500 ,0,0,,0,1.,4.8,0.,4.8,,0,0.,4.8,41.,4.8
1979-07-07 15:24:45.300 ,0,0,,0,1.,4.8,0.,4.8,,0,0.,4.8,47.,4.8
1979-07-07 15:24:50.100 ,0,0,,0,1.,4.8,0.,4.8,,0,0.,4.8,44.,4.8
1979-07-07 15:24:54.900 ,0,0,,0,1.,4.8,0.,4.8,,0,0.,4.8,45.,4.8
1979-07-07 15:24:59.700 ,0,0,,0,35.,4.8,5.,4.8,,0,0.,4.8,42.,4.8
1979-07-07 15:25:04.500 ,0,0,,0,140.,4.8,12.,4.8,,0,0.,4.8,39.,4.8
1979-07-07 15:25:09.300 ,0,0,,0,152.,4.8,13.,4.8,,0,0.,4.8,36.,4.8
1979-07-07 15:25:14.100 ,0,0,,0,156.,4.8,11.,4.8,,0,0.,4.8,36.,4.8
1979-07-07 15:25:18.900 ,0,0,,0,126.,4.8,11.,4.8,,0,0.,4.8,42.,4.8
1979-07-07 15:25:23.700 ,0,0,,0,96.,4.8,13.,4.8,,0,0.,4.8,26.,4.8
1979-07-07 15:25:28.500 ,0,0,,0,0.,4.8,0.,4.8,,0,0.,4.8,40.,4.8
1979-07-07 15:25:33.300 ,0,0,,0,0.,4.8,0.,4.8,,0,0.,4.8,31.,4.8
1979-07-07 15:25:38.100 ,1,0,,0,0.,4.8,0.,4.8,,0,0.,4.8,42.,4.8
1979-07-07 15:25:42.900 ,1,0,,0,0.,4.8,0.,4.8,,0,0.,4.8,54.,4.8
1979-07-07 15:25:47.700 ,1,0,,0,16.,4.8,1.,4.8,,0,0.,4.8,40.,4.8
1979-07-07 15:25:52.500 ,1,0,,0,120.,4.8,9.,4.8,,0,0.,4.8,29.,4.8
1979-07-07 15:25:57.300 ,1,0,,0,126.,4.8,10.,4.8,,0,0.,4.8,20.,4.8
1979-07-07 15:26:02.100 ,1,0,,0,120.,4.8,24.,4.8,,0,0.,4.8,32.,4.8
1979-07-07 15:26:06.900 ,1,0,,0,104.,4.8,11.,4.8,,0,0.,4.8,30.,4.8
1979-07-07 15:26:11.700 ,1,0,,0,120.,4.8,10.,4.8,,0,0.,4.8,28.,4.8
1979-07-07 15:26:16.500 ,1,0,,0,1.,4.8,0.,4.8,,0,0.,4.8,25.,4.8
1979-07-07 15:26:21.300 ,1,0,,0,2.,4.8,0.,4.8,,0,0.,4.8,26.,4.8
1979-07-07 15:26:26.100 ,2,0,,0,0.,4.8,0.,4.8,,0,0.,4.8,27.,4.8
1979-07-07 15:26:30.900 ,2,0,,0,0.,4.8,0.,4.8,,0,0.,4.8,31.,4.8
1979-07-07 15:26:35.700 ,2,0,,0,24.,4.8,1.,4.8,,0,0.,4.8,44.,4.8
1979-07-07 15:26:40.500 ,2,0,,0,168.,4.8,16.,4.8,,0,0.,4.8,44.,4.8
1979-07-07 15:26:45.300 ,2,0,,0,148.,4.8,22.,4.8,,0,0.,4.8,53.,4.8
1979-07-07 15:26:50.100 ,2,0,,0,176.,4.8,16.,4.8,,0,0.,4.8,43.,4.8
1979-07-07 15:26:54.900 ,2,0,,0,144.,4.8,18.,4.8,,0,0.,4.8,46.,4.8
1979-07-07 15:26:59.700 ,2,0,,0,132.,4.8,11.,4.8,,0,0.,4.8,40.,4.8
1979-07-07 15:27:04.500 ,2,0,,0,1.,4.8,0.,4.8,,0,0.,4.8,31.,4.8
1979-07-07 15:27:09.300 ,2,0,,0,0.,4.8,0.,4.8,,0,0.,4.8,44.,4.8
1979-07-07 15:27:14.100 ,3,0,,0,0.,4.8,0.,4.8,,0,0.,4.8,41.,4.8
1979-07-07 15:27:18.900 ,3,0,,0,0.,4.8,0.,4.8,,0,0.,4.8,51.,4.8
1979-07-07 15:27:23.700 ,3,0,,0,30.,4.8,6.,4.8,,0,0.,4.8,57.,4.8
1979-07-07 15:27:28.500 ,3,0,,0,192.,4.8,25.,4.8,,0,0.,4.8,66.,4.8
1979-07-07 15:27:33.300 ,3,0,,0,204.,4.8,26.,4.8,,0,0.,4.8,66.,4.8
1979-07-07 15:27:38.100 ,3,0,,0,184.,4.8,15.,4.8,,0,0.,4.8,76.,4.8
1979-07-07 15:27:42.900 ,3,0,,0,184.,4.8,22.,4.8,,0,0.,4.8,70.,4.8
1979-07-07 15:27:47.700 ,3,0,,0,144.,4.8,21.,4.8,,0,0.,4.8,52.,4.8
1979-07-07 15:27:52.500 ,3,0,,0,1.,4.8,0.,4.8,,0,0.,4.8,74.,4.8
1979-07-07 15:27:57.300 ,3,0,,0,1.,4.8,0.,4.8,,0,0.,4.8,50.,4.8
1979-07-07 15:28:02.100 ,4,0,,0,2.,4.8,0.,4.8,,0,0.,4.8,42.,4.8
1979-07-07 15:28:06.900 ,4,0,,0,0.,4.8,0.,4.8,,0,0.,4.8,66.,4.8
1979-07-07 15:28:11.700 ,4,0,,0,53.,4.8,9.,4.8,,0,0.,4.8,112.,4.8
1979-07-07 15:28:16.500 ,4,0,,0,336.,4.8,34.,4.8,,0,0.,4.8,126.,4.8
1979-07-07 15:28:21.300 ,4,0,,0,344.,4.8,39.,4.8,,0,0.,4.8,128.,4.8
1979-07-07 15:28:26.100 ,4,0,,0,336.,4.8,35.,4.8,,0,0.,4.8,144.,4.8
1979-07-07 15:28:30.900 ,4,0,,0,368.,4.8,48.,4.8,,0,0.,4.8,136.,4.8
1979-07-07 15:28:35.700 ,4,0,,0,280.,4.8,36.,4.8,,0,0.,4.8,136.,4.8
1979-07-07 15:28:40.500 ,4,0,,0,0.,4.8,0.,4.8,,0,0.,4.8,120.,4.8
1979-07-07 15:28:45.300 ,4,0,,0,1.,4.8,0.,4.8,,0,0.,4.8,112.,4.8
1979-07-07 15:28:50.100 ,5,0,,0,0.,4.8,0.,4.8,,0,0.,4.8,124.,4.8
1979-07-07 15:28:54.900 ,5,0,,0,1.,4.8,0.,4.8,,0,0.,4.8,164.,4.8
1979-07-07 15:28:59.700 ,5,0,,0,84.,4.8,15.,4.8,,0,0.,4.8,160.,4.8
1979-07-07 15:29:04.500 ,5,0,,0,512.,4.8,64.,4.8,,0,0.,4.8,172.,4.8
1979-07-07 15:29:09.300 ,5,0,,0,496.,4.8,46.,4.8,,0,0.,4.8,144.,4.8
1979-07-07 15:29:14.100 ,5,0,,0,528.,4.8,61.,4.8,,0,0.,4.8,192.,4.8
1979-07-07 15:29:18.900 ,5,0,,0,528.,4.8,48.,4.8,,0,0.,4.8,176.,4.8
1979-07-07 15:29:23.700 ,5,0,,0,384.,4.8,46.,4.8,,0,0.,4.8,168.,4.8
1979-07-07 15:29:28.500 ,5,0,,0,0.,4.8,0.,4.8,,0,0.,4.8,168.,4.8
1979-07-07 15:29:33.300 ,5,0,,0,1.,4.8,0.,4.8,,0,0.,4.8,184.,4.8